This is the latest recevied weather packets stored in our database for station/object KD4UFD. If no packets are shown the sender has not sent any weather packets the latest 10 day(s).
| Time | Temp. | Humidity | Pressure | Rain* | Wind** | Luminosity | Snow |
|---|---|---|---|---|---|---|---|
| 1777554043 | 14.44° C | 75% | 1014.2 hPa | 0 mm | - | 255 W/m² | - |
| 1777553739 | 13.89° C | 75% | 1014.2 hPa | 0 mm | - | 226 W/m² | - |
| 1777553436 | 13.33° C | 76% | 1014.1 hPa | 0 mm | - | 220 W/m² | - |
| 1777553132 | 13.89° C | 75% | 1014.1 hPa | 0 mm | - | 224 W/m² | - |
| 1777552832 | 13.33° C | 76% | 1014.1 hPa | 0 mm | - | 206 W/m² | - |
| 1777552528 | 13.33° C | 76% | 1014 hPa | 0 mm | - | 178 W/m² | - |
| 1777552224 | 13.33° C | 76% | 1014.1 hPa | 0 mm | - | 154 W/m² | - |
| 1777551921 | 13.33° C | 76% | 1014.1 hPa | 0 mm | - | 154 W/m² | - |
| 1777551619 | 13.33° C | 76% | 1013.9 hPa | 0 mm | - | 135 W/m² | - |
| 1777551316 | 12.78° C | 77% | 1013.9 hPa | 0 mm | - | 118 W/m² | - |
| 1777551012 | 12.78° C | 77% | 1014.1 hPa | 0 mm | - | 110 W/m² | - |
| 1777550709 | 12.78° C | 77% | 1014 hPa | 0 mm | - | 78 W/m² | - |
| 1777550406 | 12.78° C | 78% | 1014 hPa | 0 mm | - | 59 W/m² | - |
| 1777550102 | 12.22° C | 78% | 1013.7 hPa | 0 mm | - | 51 W/m² | - |
| 1777549798 | 12.22° C | 79% | 1014.1 hPa | 0 mm | - | 46 W/m² | - |
| 1777549495 | 12.22° C | 79% | 1013.7 hPa | 0 mm | - | 41 W/m² | - |
| 1777549190 | 12.22° C | 79% | 1013.6 hPa | 0 mm | - | 38 W/m² | - |
| 1777548888 | 12.22° C | 79% | 1013.7 hPa | 0 mm | - | 36 W/m² | - |
| 1777548584 | 12.22° C | 79% | 1013.6 hPa | 0 mm | - | 32 W/m² | - |
| 1777548281 | 12.22° C | 80% | 1013.7 hPa | 0 mm | - | 28 W/m² | - |
| 1777547978 | 12.22° C | 80% | 1013.8 hPa | 0 mm | - | 24 W/m² | - |
| 1777547673 | 12.22° C | 79% | 1013.5 hPa | 0 mm | - | 20 W/m² | - |
| 1777547370 | 12.22° C | 79% | 1013.6 hPa | 0 mm | - | 16 W/m² | - |
| 1777547069 | 12.22° C | 79% | 1013.2 hPa | 0 mm | - | 11 W/m² | - |
| 1777546766 | 12.22° C | 79% | 1013.3 hPa | 0 mm | - | 6 W/m² | - |
* Rain latest hour (hover to see other rain measurements)
** Current wind speed in m/s (hover to see current wind gust speed)